Regional Weather Roundup
Issued by NWS

Home | Current Version | Previous Version | Text Only | Print | Product List | Glossary Off
Versions: 1 2 3 4 5 6 7 8 9 10 11 12 13 14 15 16 17 18 19 20 21 22 23 24 25 26 27 28 29 30 31 32 33 34 35 36 37 38 39 40 41 42 43 44 45 46 47 48 49 50

000
ASUS43 KLSX 280859
RWRMO

WEATHER SUMMARY FOR MISSOURI
NATIONAL WEATHER SERVICE SPRINGFIELD MO
400 AM CDT WED JUN 28 2017

NOTE: "FAIR" INDICATES FEW OR NO CLOUDS BELOW 12,000 FEET WITH NO
       SIGNIFICANT WEATHER AND/OR OBSTRUCTIONS TO VISIBILITY.
       CURRENT SKY AND/OR WEATHER CONDITIONS ARE NOT AVAILABLE FOR
       CHILLICOTHE AND FARMINGTON.

MOZ001>031-035>038-043-044-053-054-281000-
...NORTHERN AND WESTERN MISSOURI...

CITY           SKY/WX    TMP DP  RH WIND       PRES   REMARKS
KANSAS CTY INT CLOUDY    74  65  73 S21G26    29.84F
KANSAS C DTWN  CLOUDY    75  65  70 S15G26    29.84F
LEE`S SUMMIT   CLOUDY    73  65  75 S18G26    29.87F
ST JOSEPH      CLOUDY    75  66  73 S15G22    29.81R
CHILLICOTHE      N/A     73  65  75 S7        29.87R
KIRKSVILLE     CLOUDY    70  63  78 S15       29.89F

$$
MOZ066>068-077>081-088>096-101>105-281000-
...SOUTHWEST MISSOURI...

CITY           SKY/WX    TMP DP  RH WIND       PRES   REMARKS
SPRINGFIELD    CLEAR     68  63  84 S12       29.97F
JOPLIN         CLEAR     71  64  78 S12       29.94S
BRANSON        CLEAR     63  61  94 CALM      30.02S

$$
MOZ032>034-039>042-045>050-055>058-069>072-281000-
...CENTRAL MISSOURI...

CITY           SKY/WX    TMP DP  RH WIND       PRES   REMARKS
COLUMBIA       PTCLDY    67  64  90 S10       29.95F
JEFFERSON CITY CLOUDY    70  62  76 SE6       29.95F
ROLLA          CLEAR     65  62  90 S12       29.98F
SEDALIA        MOCLDY    70  65  84 S14       29.93F
WARRENSBURG    CLOUDY    72  61  68 S14G20    29.89S
OSAGE BEACH    PTCLDY    67  63  87 S6        29.97F

$$
MOZ051-052-059>065-281000-
...EAST CENTRAL MISSOURI...

CITY           SKY/WX    TMP DP  RH WIND       PRES   REMARKS
ST LOUIS INTL  PTCLDY    70  57  63 S8        30.01R
SPIRIT OF STL  CLOUDY    68  60  75 S3        29.99R
ST CHARLES     CLOUDY    64  58  80 SE6       29.99S

$$
MOZ072>076-082>087-097>100-106>115-281000-
...SOUTH CENTRAL AND SOUTHEAST MISSOURI...

CITY           SKY/WX    TMP DP  RH WIND       PRES   REMARKS
CAPE GIRARDEAU CLEAR     62  57  83 E3        30.03F
FARMINGTON     CLEAR     59  56  89 CALM      30.05R
POPLAR BLUFF   CLEAR     63  63 100 CALM      30.01F
WEST PLAINS    CLEAR     65  63  93 S5        30.05R

$$




USA.gov is the U.S. government's official web portal to all federal, state and local government web resources and services.